Regional Weather Roundup
Issued by NWS

Home | Current Version | Previous Version | Graphics & Text | Print | Product List | Glossary On
Versions: 1 2 3 4 5 6 7 8 9 10 11 12 13 14 15 16 17 18 19 20 21 22 23 24 25 26 27
000
ASUS45 KBOI 300810
RWRID

IDAHO REGIONAL WEATHER ROUNDUP
NATIONAL WEATHER SERVICE BOISE ID
200 AM MDT THU MAR 30 2017

NOTE: "FAIR" INDICATES FEW OR NO CLOUDS BELOW 12000 FEET
WITH NO SIGNIFICANT WEATHER AND/OR OBSTRUCTIONS TO VISIBILITY

IDZ012-014-300900-
SOUTHWEST IDAHO


CITY           SKY/WX    TMP DP  RH WIND       PRES   REMARKS
BOISE          CLOUDY    48  45  89 CALM      29.90F
CALDWELL       CLOUDY    45  44  97 CALM      29.90F FOG
MOUNTAIN HOME  CLOUDY    50 N/A N/A CALM      29.90F
$$

IDZ016-017-300900-
SOUTHCENTRAL IDAHO


CITY           SKY/WX    TMP DP  RH WIND       PRES   REMARKS
BURLEY         LGT RAIN  47  44  90 NW3       29.90F
JEROME         LGT RAIN  46  46 100 SW3       29.92F FOG
TWIN FALLS     LGT RAIN  45  43  93 SW6       29.92F
$$

IDZ019>023-300900-
SOUTHEAST IDAHO


CITY           SKY/WX    TMP DP  RH WIND       PRES   REMARKS
IDAHO FALLS    LGT RAIN  45  39  79 SW12      29.90F
POCATELLO      LGT RAIN  49  37  63 S22G29    29.90S
REXBURG        CLOUDY    44  37  76 S14G21    29.88F
$$

IDZ006-010-011-018-031-032-300900-
CENTRAL IDAHO MOUNTAINS


CITY           SKY/WX    TMP DP  RH WIND       PRES   REMARKS
MCCALL         CLOUDY    34  32  92 CALM      29.87F
HAILEY         RAIN      39  39 100 SE3       29.92F
STANLEY          N/A     34  33  96 CALM      29.89S
SALMON         CLOUDY    43  41  93 CALM      29.85S
CHALLIS        LGT RAIN  42  41  96 CALM      29.84F
$$

IDZ002-004-006-007-026-300900-
NORTHERN IDAHO


CITY           SKY/WX    TMP DP  RH WIND       PRES   REMARKS
LEWISTON       MOCLDY    49  44  83 SW3       29.87F
LOWELL           N/A     44  42  93 CALM      29.91S
COEUR D`ALENE  CLOUDY    46  42  86 CALM      29.82R
MULLAN PASS    CLOUDY    32  32 100 W14G25    29.80S WCI  22
$$




USA.gov is the U.S. government's official web portal to all federal, state and local government web resources and services.